Morgantown, WV

11:25 AM EDT on October 17, 2017 (GMT -0400)
Morgantown Municipal-Hart

Weather History for KMGW - April, 2014

Change the Weather History Date:

Thursday, April 24, 2014

  Actual Average Record
Temperature  
Mean Temperature 47 °F 56 °F  
Max Temperature 63 °F 67 °F 88 °F (1960)
Min Temperature 31 °F 44 °F 28 °F (1986)
Degree Days  
Heating Degree Days 18 10  
Month to date heating degree days 255 325  
Since 1 July heating degree days 5244 4926  
Cooling Degree Days 0 1  
Month to date cooling degree days 18 6  
Year to date cooling degree days 18 8  
Moisture  
Dew Point 22 °F    
Average Humidity 51    
Maximum Humidity 85    
Minimum Humidity 17    
Precipitation  
Precipitation 0.00 in 0.12 in 1.28 in (1975)
Month to date precipitation 2.10 2.81  
Year to date precipitation 10.03 11.87  
Sea Level Pressure  
Sea Level Pressure 30.09 in    
Wind  
Wind Speed 3 mph (NNE)    
Max Wind Speed 9 mph    
Max Gust Speed 13 mph    
Visibility 10 miles    
Events      
T = Trace of Precipitation, MM = Missing Value Source: NWS Daily Summary

Daily Weather History Graph

Daily Weather History Graph

Search for Another Location

Airport or City:

Trip Planner

Search our weather history database for the weather conditions in past years. The results will help you decide how hot, cold, wet, or windy it might be!

Date:

Astronomy

Apr. 24, 2014 Rise Set
Actual Time 6:29 AM EDT 8:06 PM EDT
Civil Twilight 6:01 AM EDT 8:35 PM EDT
Nautical Twilight 5:26 AM EDT 9:09 PM EDT
Astronomical Twilight 4:50 AM EDT 9:46 PM EDT
Moon 3:38 AM EDT (4/24) 3:21 PM EDT (4/24)
Length of Visible Light 14h 34m
Length of Day
13h 37m
Waning Crescent, 24% of the Moon is Illuminated
Apr 24
Waning Crescent
Apr 29
New
May 6
First Quarter
May 14
Full
May 21
Last Quarter

Hourly Weather History & Observations

Time (EDT) Temp. Windchill Dew Point Humidity Pressure Visibility Wind Dir Wind Speed Gust Speed Precip Events Conditions
12:53 AM 42.1 °F 40.2 °F 28.0 °F 58% 30.10 in 10.0 mi NW 3.5 mph - N/A   Clear
1:53 AM 39.0 °F - 25.0 °F 57% 30.12 in 10.0 mi Calm Calm - N/A   Clear
2:53 AM 36.0 °F 33.3 °F 24.1 °F 62% 30.11 in 10.0 mi NNE 3.5 mph - N/A   Clear
3:53 AM 33.1 °F - 27.0 °F 78% 30.12 in 10.0 mi Calm Calm - N/A   Clear
4:53 AM 36.0 °F - 26.1 °F 67% 30.12 in 10.0 mi Calm Calm - N/A   Clear
5:53 AM 33.1 °F - 26.1 °F 75% 30.14 in 10.0 mi Calm Calm - N/A   Clear
6:53 AM 30.9 °F - 27.0 °F 85% 30.17 in 10.0 mi Calm Calm - N/A   Clear
7:53 AM 35.1 °F - 27.0 °F 72% 30.19 in 10.0 mi Calm Calm - N/A   Clear
8:53 AM 37.9 °F - 28.0 °F 68% 30.18 in 10.0 mi Calm Calm - N/A   Clear
9:53 AM 42.1 °F 40.2 °F 27.0 °F 55% 30.21 in 10.0 mi Variable 3.5 mph - N/A   Clear
10:53 AM 46.0 °F 43.9 °F 21.0 °F 37% 30.19 in 10.0 mi NE 4.6 mph - N/A   Clear
11:53 AM 48.9 °F - 18.0 °F 29% 30.17 in 10.0 mi ENE 8.1 mph - N/A   Clear
12:53 PM 54.0 °F - 21.0 °F 28% 30.14 in 10.0 mi North 6.9 mph - N/A   Clear
1:53 PM 55.9 °F - 19.9 °F 25% 30.11 in 10.0 mi North 9.2 mph - N/A   Clear
2:53 PM 57.9 °F - 15.1 °F 19% 30.08 in 10.0 mi North - - N/A   Clear
3:53 PM 61.0 °F - 19.0 °F 20% 30.05 in 10.0 mi Variable 6.9 mph - N/A   Clear
4:53 PM 62.1 °F - 18.0 °F 18% 30.02 in 10.0 mi Calm Calm - N/A   Clear
5:53 PM 63.0 °F - 17.1 °F 17% 30.02 in 10.0 mi Calm Calm - N/A   Clear
6:53 PM 59.0 °F - 21.9 °F 24% 30.01 in 10.0 mi North 5.8 mph - N/A   Clear
7:53 PM 59.0 °F - 19.9 °F 22% 30.01 in 10.0 mi Calm Calm - N/A   Clear
8:53 PM 55.0 °F - 19.9 °F 25% 29.99 in 10.0 mi NE 4.6 mph - N/A   Clear
9:53 PM 54.0 °F - 19.9 °F 26% 29.98 in 10.0 mi NNE 4.6 mph - N/A   Clear
10:53 PM 54.0 °F - 19.0 °F 25% 29.96 in 10.0 mi NNW 3.5 mph - N/A   Clear
11:53 PM 54.0 °F - 19.9 °F 26% 29.93 in 10.0 mi Calm Calm - N/A   Clear